Home > Weather > Reykjavik > Past weeks

Flag for Iceland Past Weather in Reykjavik, Iceland — Yesterday and Last 2 Weeks

Now
63 °F

Passing clouds.


Feels Like: 63 °F
Forecast: N/A
Wind: 16 mph from North

Location: Reykjavik Airport

Current Time: Jul 30, 2016 at 5:03:18 PM

Latest Report: Jul 30, 2016 at 4:00 PM


Visibility: N/A

Pressure: 29.98 "Hg

Humidity: 42%

Dew Point: 39 °F

Location of ReykjavikLocation

Past Weather in Reykjavik — Graph

°F

Reykjavik Temperature Yesterday

Maximum temperature yesterday: 61 °F (at 5:00 PM)
Minimum temperature yesterday: 48 °F (at 6:00 AM)
Average temperature yesterday: 55 °F

High & Low Weather Summary for the Past Weeks

 TemperatureHumidityPressure
High70 °F (Jul 27, 7:00 PM)94% (Jul 20, 4:00 AM)30.01 "Hg (Jul 20, 4:00 AM)
Low45 °F (Jul 30, 5:00 AM)39% (Jul 28, 3:00 PM)29.45 "Hg (Jul 15, 3:00 PM)
Average56 °F75%29.82 "Hg
* Reported Jul 15 3:00 PM — Jul 30 3:00 PM, Reykjavik, Weather by CustomWeather, © 2016

Note: Actual official high and low records may vary slightly from our data, if they occured in-between our weather recording intervals... More about our weather records

Advertising

Reykjavik Weather History for the Previous 24 Hours

Scroll right to see more
 ConditionsComfort  
Time TempWeatherWind HumidityBarometerVisibility
3:00 PM
Sat, Jul 30
61 °FPassing clouds.15 mph45%29.98 "HgN/A
2:00 PM61 °FPassing clouds.15 mph45%30.01 "HgN/A
1:00 PM59 °FPassing clouds.8 mph42%30.01 "HgN/A
12:00 PM57 °FPassing clouds.8 mph48%30.01 "HgN/A
11:00 AM55 °FPassing clouds.8 mph51%30.01 "HgN/A
10:00 AM54 °FPassing clouds.7 mph58%30.01 "HgN/A
9:00 AM52 °FPassing clouds.3 mph58%30.01 "HgN/A
8:00 AM50 °FSunny.2 mph67%30.01 "Hg10 mi
7:00 AM46 °FSunny.5 mph71%30.01 "Hg10 mi
6:00 AM45 °FSunny.7 mph76%30.01 "Hg10 mi
5:00 AM45 °FSunny.6 mph76%30.01 "Hg10 mi
4:00 AM48 °FClear.No wind66%30.01 "Hg10 mi
3:00 AM48 °FClear.2 mph66%30.01 "Hg10 mi
2:00 AM46 °FClear.No wind71%29.98 "Hg10 mi
1:00 AM48 °FPassing clouds.5 mph66%29.98 "HgN/A
12:00 AM52 °FClear.6 mph62%29.98 "Hg10 mi
11:00 PM
Fri, Jul 29
54 °FClear.5 mph63%29.98 "Hg10 mi
10:00 PM55 °FSunny.5 mph63%29.98 "Hg10 mi
9:00 PM59 °FPassing clouds.6 mph55%29.95 "HgN/A
8:00 PM61 °FSunny.9 mph52%29.95 "Hg10 mi
7:00 PM61 °FSunny.14 mph52%29.95 "Hg10 mi
6:00 PM61 °FSunny.14 mph52%29.95 "Hg10 mi
5:00 PM61 °FSunny.14 mph48%29.95 "Hg10 mi
Weather by CustomWeather, © 2016

See weather overviewHow to use our weather pages